GW0582 Weather Reports


Display with metric or nautical units.
time (UTC)temp
F
wind
direction
speed
MPH
gust
MPH
rain 1hr
in
rain 24hr
in
rain mn
in
humidity
%
barometer
mb
20260504185029 76 68 7.0 15.0 0.00 0.00 0.00 49 1017.3
20260504184551 76 32 8.0 15.0 0.00 0.00 0.00 47 1017.4
20260504184030 76 9 8.0 15.0 0.00 0.00 0.00 49 1017.5
20260504183531 76 14 5.0 14.0 0.00 0.00 0.00 49 1017.5
20260504183041 76 314 6.0 14.0 0.00 0.00 0.00 48 1017.4
20260504182529 76 43 7.0 13.0 0.00 0.00 0.00 49 1017.4
20260504182030 75 355 7.0 15.0 0.00 0.00 0.00 47 1017.5
20260504181544 75 60 6.0 16.0 0.00 0.00 0.00 49 1017.6
20260504181029 75 70 9.0 16.0 0.00 0.00 0.00 48 1017.6
20260504180529 76 342 7.0 14.0 0.00 0.00 0.00 48 1017.7
20260504180049 76 329 3.0 11.0 0.00 0.00 0.00 49 1017.6
20260504175527 76 1 5.0 11.0 0.00 0.00 0.00 49 1017.9
20260504175030 76 44 6.0 11.0 0.00 0.00 0.00 49 1017.8
20260504174545 75 10 5.0 11.0 0.00 0.00 0.00 50 1017.7
20260504174030 74 73 5.0 11.0 0.00 0.00 0.00 50 1017.7
20260504173530 75 67 3.0 10.0 0.00 0.00 0.00 49 1017.7
20260504173049 75 75 6.0 10.0 0.00 0.00 0.00 50 1017.6
20260504172529 75 70 6.0 10.0 0.00 0.00 0.00 48 1017.8
20260504172109 75 65 5.0 12.0 0.00 0.00 0.00 48 1017.7
20260504171543 76 51 5.0 12.0 0.00 0.00 0.00 48 1017.8
20260504171032 76 17 4.0 9.0 0.00 0.00 0.00 48 1017.9
20260504170531 75 0 1.0 10.0 0.00 0.00 0.00 47 1017.8
20260504151029 73 0 0.0 6.0 0.00 0.00 0.00 63 1018.7
20260504150529 72 348 2.0 6.0 0.00 0.00 0.00 61 1018.7
20260504141029 68 0 0.0 3.0 0.00 0.00 0.00 74 1018.8
20260504140529 68 129 0.0 3.0 0.00 0.00 0.00 75 1018.8
20260504130529 59 176 1.0 2.0 0.00 0.00 0.00 92 1018.7
20260504110526 51 105 0.0 0.0 0.00 0.00 0.00 100 1017.9
20260504100526 52 0 0.0 1.0 0.00 0.00 0.00 99 1018.3
20260504090108 53 0 0.0 1.0 0.00 0.00 0.00 98 1018.1
20260504081541 54 0 0.0 1.0 0.00 0.00 0.00 97 1018.2
20260504081028 54 0 0.0 1.0 0.00 0.00 0.00 97 1018.3
20260504080528 54 0 0.0 1.0 0.00 0.00 0.00 97 1018.3
20260504050533 58 0 0.0 0.0 0.00 0.00 0.00 89 1019.6
20260504045531 58 0 0.0 0.0 0.00 0.00 0.00 90 1019.6
20260504045030 58 0 0.0 0.0 0.00 0.00 0.00 90 1019.8
20260504044558 58 0 0.0 0.0 0.00 0.00 0.00 88 1019.7
20260504044030 58 0 0.0 0.0 0.00 0.00 0.00 87 1019.7
20260504043530 58 0 0.0 0.0 0.00 0.00 0.00 87 1019.8
20260504043046 58 0 0.0 0.0 0.00 0.00 0.00 88 1019.8
20260504042529 59 0 0.0 0.0 0.00 0.00 0.00 87 1019.8
20260504042030 59 0 0.0 0.0 0.00 0.00 0.00 86 1019.8
20260504041541 58 0 0.0 1.0 0.00 0.00 0.00 90 1019.8
20260504041030 57 0 0.0 1.0 0.00 0.00 0.00 91 1019.8
20260504040532 57 0 0.0 0.0 0.00 0.00 0.00 91 1019.8
20260504040043 57 0 0.0 0.0 0.00 0.00 0.00 90 1019.7
20260504035530 57 0 0.0 0.0 0.00 0.00 0.00 90 1019.8
20260504035029 57 0 0.0 0.0 0.00 0.00 0.00 90 1019.7
20260504034551 58 0 0.0 0.0 0.00 0.00 0.00 90 1019.8
20260504034030 58 0 0.0 0.0 0.00 0.00 0.00 90 1019.8
20260504033530 58 0 0.0 0.0 0.00 0.00 0.00 89 1019.8
20260504033054 58 0 0.0 0.0 0.00 0.00 0.00 89 1019.7
20260504032530 58 0 0.0 0.0 0.00 0.00 0.00 88 1019.8
20260504032032 59 0 0.0 0.0 0.00 0.00 0.00 88 1019.7
20260504031542 59 0 0.0 0.0 0.00 0.00 0.00 87 1019.8
20260504031030 59 0 0.0 1.0 0.00 0.00 0.00 86 1019.8
20260504030530 59 0 0.0 2.0 0.00 0.00 0.00 86 1019.8
20260504030046 59 0 0.0 2.0 0.00 0.00 0.00 86 1019.7
20260504025531 59 79 0.0 1.0 0.00 0.00 0.00 86 1019.6
20260504025033 59 0 0.0 0.0 0.00 0.00 0.00 86 1019.5
20260504024547 59 0 0.0 0.0 0.00 0.00 0.00 86 1019.5
20260504024030 60 0 0.0 0.0 0.00 0.00 0.00 85 1019.5
20260504023528 59 0 0.0 0.0 0.00 0.00 0.00 85 1019.5
20260504023043 60 0 0.0 0.0 0.00 0.00 0.00 84 1019.4
20260504022528 60 0 0.0 0.0 0.00 0.00 0.00 83 1019.4
20260504022028 60 0 0.0 0.0 0.00 0.00 0.00 83 1019.3
20260504021542 60 0 0.0 0.0 0.00 0.00 0.00 83 1019.3
20260504021028 60 0 0.0 0.0 0.00 0.00 0.00 83 1019.1
20260504020528 61 0 0.0 0.0 0.00 0.00 0.00 82 1019.1
20260504020041 61 0 0.0 0.0 0.00 0.00 0.00 82 1019.1
20260504015528 60 0 0.0 0.0 0.00 0.00 0.00 83 1019.0
20260504015031 60 0 0.0 0.0 0.00 0.00 0.00 83 1019.0
20260504014547 61 0 0.0 0.0 0.00 0.00 0.00 80 1018.9
20260504014028 61 0 0.0 0.0 0.00 0.00 0.00 79 1018.9
20260504013529 62 0 0.0 0.0 0.00 0.00 0.00 79 1019.0
20260504013049 62 0 0.0 0.0 0.00 0.00 0.00 77 1018.9
20260504012529 63 0 0.0 1.0 0.00 0.00 0.00 77 1018.8
20260504012031 63 0 0.0 1.0 0.00 0.00 0.00 77 1018.7
20260504011545 63 0 0.0 0.0 0.00 0.00 0.00 75 1018.7
20260504011028 64 0 0.0 0.0 0.00 0.00 0.00 75 1018.7
20260504010528 64 0 0.0 0.0 0.00 0.00 0.00 71 1018.6
20260504010052 65 0 0.0 0.0 0.00 0.00 0.00 71 1018.7
20260504005528 66 0 0.0 0.0 0.00 0.00 0.00 70 1018.7
20260504005028 66 0 0.0 0.0 0.00 0.00 0.00 67 1018.6
20260504004542 68 0 0.0 1.0 0.00 0.00 0.00 64 1018.5
20260504004028 68 0 0.0 1.0 0.00 0.00 0.00 61 1018.5
20260504003528 69 0 0.0 3.0 0.00 0.00 0.00 60 1018.5
20260504003047 71 0 0.0 3.0 0.00 0.00 0.00 60 1018.5
20260504002528 71 0 0.0 4.0 0.00 0.00 0.00 54 1018.5
20260504002028 72 110 2.0 4.0 0.00 0.00 0.00 54 1018.5
20260504001605 72 106 0.0 3.0 0.00 0.00 0.00 52 1018.4
20260504001028 72 0 0.0 6.0 0.00 0.00 0.00 52 1018.4
20260504000530 72 0 1.0 6.0 0.00 0.00 0.00 52 1018.4
20260504000045 73 62 3.0 7.0 0.00 0.00 0.00 51 1018.4
20260503235528 73 0 2.0 7.0 0.00 0.00 0.00 51 1018.4
20260503235029 73 75 3.0 7.0 0.00 0.00 0.00 50 1018.5
20260503234544 73 87 3.0 7.0 0.00 0.00 0.00 50 1018.5
20260503234029 73 48 3.0 7.0 0.00 0.00 0.00 49 1018.5
20260503233528 73 93 4.0 7.0 0.00 0.00 0.00 50 1018.6
20260503233041 74 0 1.0 7.0 0.00 0.00 0.00 49 1018.6
20260503232528 73 84 2.0 7.0 0.00 0.00 0.00 49 1018.6
20260503232030 73 89 5.0 9.0 0.00 0.00 0.00 48 1018.6
20260503231541 73 0 4.0 12.0 0.00 0.00 0.00 49 1018.6
20260503231030 73 44 3.0 12.0 0.00 0.00 0.00 49 1018.5
20260503230531 73 31 5.0 11.0 0.00 0.00 0.00 49 1018.6
20260503230048 73 56 6.0 11.0 0.00 0.00 0.00 49 1018.6
20260503225530 74 42 7.0 11.0 0.00 0.00 0.00 49 1018.6
20260503225030 74 68 5.0 10.0 0.00 0.00 0.00 49 1018.7
20260503224545 74 26 6.0 10.0 0.00 0.00 0.00 48 1018.8
20260503224030 73 58 7.0 12.0 0.00 0.00 0.00 47 1018.8
20260503223530 74 20 7.0 12.0 0.00 0.00 0.00 47 1018.7
20260503223046 74 66 7.0 12.0 0.00 0.00 0.00 47 1018.7
20260503222529 74 61 5.0 9.0 0.00 0.00 0.00 47 1018.7
20260503222029 74 53 5.0 12.0 0.00 0.00 0.00 46 1018.7
20260503221544 74 68 5.0 12.0 0.00 0.00 0.00 46 1018.8
20260503221030 74 65 3.0 12.0 0.00 0.00 0.00 45 1018.9
20260503220530 74 94 4.0 10.0 0.00 0.00 0.00 45 1019.0
20260503220103 74 76 6.0 15.0 0.00 0.00 0.00 45 1019.1
20260503215529 74 0 5.0 15.0 0.00 0.00 0.00 45 1019.1
20260503215029 74 104 7.0 15.0 0.00 0.00 0.00 45 1019.2
20260503214549 74 90 4.0 11.0 0.00 0.00 0.00 44 1019.1
20260503214030 74 89 5.0 11.0 0.00 0.00 0.00 44 1019.2
20260503213534 75 49 4.0 10.0 0.00 0.00 0.00 44 1019.2
20260503213042 74 44 5.0 8.0 0.00 0.00 0.00 44 1019.2
20260503212531 74 100 4.0 13.0 0.00 0.00 0.00 44 1019.4
20260503212030 74 44 7.0 13.0 0.00 0.00 0.00 44 1019.5
20260503211601 74 345 5.0 10.0 0.00 0.00 0.00 43 1019.5
20260503211030 74 20 5.0 11.0 0.00 0.00 0.00 45 1019.5
20260503210530 74 353 4.0 11.0 0.00 0.00 0.00 44 1019.6
20260503210049 74 58 5.0 11.0 0.00 0.00 0.00 45 1019.8
20260503205530 74 66 7.0 13.0 0.00 0.00 0.00 44 1019.8
20260503205032 74 76 5.0 14.0 0.00 0.00 0.00 44 1019.7
20260503204542 74 29 6.0 14.0 0.00 0.00 0.00 45 1019.9
20260503204029 74 333 6.0 13.0 0.00 0.00 0.00 46 1020.0
20260503203529 74 46 7.0 13.0 0.00 0.00 0.00 45 1020.0
20260503203050 75 76 3.0 15.0 0.00 0.00 0.00 44 1020.0
20260503202530 74 74 6.0 15.0 0.00 0.00 0.00 45 1020.1
20260503202030 75 39 3.0 11.0 0.00 0.00 0.00 44 1020.1
20260503201542 75 73 4.0 13.0 0.00 0.00 0.00 44 1020.2
20260503201029 75 52 7.0 13.0 0.00 0.00 0.00 44 1020.4
20260503200529 76 144 6.0 11.0 0.00 0.00 0.00 42 1020.4
20260503200042 76 0 3.0 10.0 0.00 0.00 0.00 43 1020.4
20260503195530 77 127 1.0 13.0 0.00 0.00 0.00 39 1020.5
20260503195029 76 61 4.0 13.0 0.00 0.00 0.00 43 1020.5
20260503194545 77 137 1.0 6.0 0.00 0.00 0.00 38 1020.6
20260503194029 76 0 0.0 6.0 0.00 0.00 0.00 37 1020.7
20260503193532 76 32 2.0 6.0 0.00 0.00 0.00 39 1020.8
20260503193049 76 130 4.0 6.0 0.00 0.00 0.00 37 1020.9
20260503192530 76 0 2.0 6.0 0.00 0.00 0.00 41 1020.9
20260503192030 77 300 2.0 9.0 0.00 0.00 0.00 41 1021.0
20260503191542 76 285 5.0 9.0 0.00 0.00 0.00 41 1021.1
20260503191030 76 47 3.0 10.0 0.00 0.00 0.00 43 1021.2
20260503190530 75 61 3.0 10.0 0.00 0.00 0.00 41 1021.3
20260503190042 75 67 2.0 8.0 0.00 0.00 0.00 39 1021.3
20260503185529 76 130 1.0 10.0 0.00 0.00 0.00 39 1021.4